Overview Statistics Trail Chart Weather Telemetry Raw packets
 

This is the latest recevied weather packets stored in our database for station/object KK7MLS-13. If no packets are shown the sender has not sent any weather packets the latest 10 day(s).

<< 23 24 25 26 27 28 29 >>
Time Temp. Humidity Pressure Rain* Wind** Luminosity Snow
1788521586 12.22° C 95% 1011.1 hPa 1.78 mm - 0 W/m² -
1788521281 12.22° C 95% 1011 hPa 1.27 mm - 0 W/m² -
1788520976 12.22° C 95% 1011.1 hPa 1.27 mm - 0 W/m² -
1788520672 12.22° C 95% 1010.9 hPa 0 mm - 0 W/m² -
1788520368 12.22° C 95% 1010.8 hPa 0 mm - 0 W/m² -
1788520063 12.22° C 95% 1010.9 hPa 1.78 mm - 0 W/m² -
1788519762 12.22° C 95% 1010.8 hPa 1.78 mm - 0 W/m² -
1788519457 12.22° C 95% 1010.9 hPa 0 mm - 0 W/m² -
1788519152 12.22° C 95% 1010.9 hPa 1.27 mm - 0 W/m² -
1788518848 12.22° C 95% 1010.8 hPa 1.27 mm - 0 W/m² -
1788518543 12.22° C 95% 1010.7 hPa 0 mm - 0 W/m² -
1788518241 12.22° C 95% 1010.8 hPa 0 mm - 0 W/m² -
1788517940 12.22° C 95% 1010.7 hPa 0 mm - 0 W/m² -
1788517631 12.22° C 95% 1010.8 hPa 0 mm - 0 W/m² -
1788517326 12.22° C 94% 1010.8 hPa 0 mm - 0 W/m² -
1788517023 12.22° C 94% 1010.8 hPa 0 mm - 0 W/m² -
1788516718 12.22° C 94% 1010.7 hPa 0 mm - 0 W/m² -
1788516413 12.22° C 94% 1010.6 hPa 0 mm - 0 W/m² -
1788516109 11.67° C 94% 1010.6 hPa 0 mm - 0 W/m² -
1788515808 11.67° C 94% 1010.5 hPa 0 mm - 0 W/m² -
1788515503 11.67° C 94% 1010.5 hPa 0 mm - 0 W/m² -
1788515198 11.67° C 94% 1010.7 hPa 0 mm - 0 W/m² -
1788514893 11.67° C 94% 1010.6 hPa 0 mm - 0 W/m² -
1788514591 11.67° C 94% 1010.6 hPa 0 mm - 0 W/m² -
1788514290 11.67° C 93% 1010.5 hPa 0 mm - 0 W/m² -

* Rain latest hour (hover to see other rain measurements)
** Current wind speed in m/s (hover to see current wind gust speed)